Starlink 11595

operational
NORAD ID: 63669 Int'l Des: 2025-085 Owner: SPXS Country: US Constellation: starlink
LEOCIRCULAR

Starlink 11595について

説明を読み込み中...

リアルタイム位置

3D地球を読み込み中...

次回通過

高度履歴

Altitude vs Time

uPlot chart will show altitude changes over time

軌道要素

1 63669U 25085F 26036.22749919 .00272558 00000-0 20532-2 0 9993
2 63669 42.9997 114.3324 0001461 271.4629 88.6071 15.70903873 45780
Epoch: Feb 5, 2026 • Age: 12 hours

現在のステータス

高度 357.0 km
速度 7.70 km/s
衛星直下点 31.71°N, 108.35°E
打ち上げ日 Apr 28, 2025
運用期間 0.7 years
タイプ internet

技術仕様

分類 Payload
質量 960.00 kg
乾燥質量 910.00 kg
総質量 960.00 kg
長さ 0.30 m
直径 4.10 m
スパン 29.00 m
形状 Box + pan
製造者 SPXS
バスタイプ Starlink V2MD
フェーズステータス In Orbit
所有者/国 SPXS/US

大規模コンステレーション

Loading constellations...